Regional Weather Roundup
Issued by NWS

Home | Current Version | Previous Version | Graphics & Text | Print | Product List | Glossary On
Versions: 1 2 3 4 5 6 7 8 9 10 11 12 13 14 15 16 17 18 19 20 21 22 23 24 25 26 27 28 29 30 31 32 33 34 35 36 37 38 39 40 41 42 43 44 45 46 47 48 49 50
000
ASUS43 KMPX 232310
RWRMN
WEATHER ROUNDUP FOR MINNESOTA
NATIONAL WEATHER SERVICE TWIN CITIES/CHANHASSEN MN
500 PM CST FRI FEB 23 2018


NOTE: "FAIR" INDICATES FEW OR NO CLOUDS BELOW 12,000 FEET WITH NO
SIGNIFICANT WEATHER AND/OR OBSTRUCTIONS TO VISIBILITY. N/A MEANS
CURRENT SKY AND/OR WEATHER CONDITIONS ARE NOT AVAILABLE.

MNZ060>063-068>070-240000-
   Twin Cities Metro

CITY           SKY/WX    TMP DP  RH WIND       PRES   REMARKS
TWIN CITIES    FAIR      30  22  72 W10       30.23R WCI  21
ST PAUL        FAIR      30  21  69 SW12      30.23R WCI  20
CRYSTAL        FAIR      31  20  63 W12       30.21R WCI  22
BLAINE         PTCLDY    34  21  60 W9        30.21R WCI  26
LAKEVILLE      FAIR      23  19  86 W10       30.24R WCI  12
EDEN PRAIRIE   FAIR      27  19  72 W9        30.23R WCI  18
SOUTH ST PAUL  FAIR      30  21  70 W9        30.23R WCI  21
LAKE ELMO      FAIR      32  23  69 W10       30.22R WCI  24
$$
MNZ001>005-007-008-013>017-022>024-027-028-240000-
   Northwest Minnesota

CITY           SKY/WX    TMP DP  RH WIND       PRES   REMARKS
BEMIDJI        FAIR      19   7  60 W13       30.15R WCI   6
HALLOCK        FAIR      18  10  73 SW6       30.18S WCI   9
ROSEAU         FAIR      16   9  73 W10       30.14S WCI   3
WARROAD        FAIR      18   9  68 SW12      30.13R WCI   5
THIEF RVR FALL FAIR      13   6  74 W7        30.19S WCI   3
CROOKSTON      FAIR      14   7  73 SW5       30.21S WCI   6
FOSSTON        FAIR      16   1  53 SW8       30.19R WCI   5
DETROIT LAKES  FAIR      16   9  73 NW6       30.21R WCI   7
MOORHEAD       FAIR      12   3  67 SW5       30.26R WCI   4
PARK RAPIDS    FAIR      19   9  65 W10       30.15S WCI   7
MAHNOMEN       FAIR      10   3  73 SW9       30.21R WCI  -2
$$
MNZ006-009>011-018-025>026-240000-
   North Central Minnesota

CITY           SKY/WX    TMP DP  RH WIND       PRES   REMARKS
BAUDETTE       FAIR      22   3  44 W12       30.09S WCI  10
FLAG ISLAND    FAIR      21   5  49 NW16      30.08S WCI   7
INTL FALLS     FAIR      27  12  53 NW7       30.07S WCI  19
WASKISH        FAIR      16   9  73 SW15      30.13S WCI   1
LONGVILLE      CLOUDY    28  21  74 SW6       30.13R WCI  22
GRAND RAPIDS   CLOUDY    28  21  75 NW7       30.14R WCI  21
CRANE LAKE     CLOUDY    27  19  74 W3        30.10R
ORR            CLOUDY    27  18  69 W6        30.06S WCI  20
COOK             N/A     27  21  80 W3        30.10R
WALKER         FAIR      25   5  42 NW8       30.14R WCI  16
$$
MNZ012-019>021-037-240000-
   Northeast Minnesota

CITY           SKY/WX    TMP DP  RH WIND       PRES   REMARKS
DULUTH         CLOUDY    31  21  66 W13       30.10R WCI  21
ELY            CLOUDY    27  21  80 W8        30.07R WCI  18
HIBBING        CLOUDY    27  20  75 SW5       30.10R WCI  22
EVELETH        MOCLDY    27  21  80 W5        30.11R WCI  21
DULUTH HARBOR  MIX PCPN  34  25  69 W9        30.14R VSB 1/2 WCI  26
TWO HARBORS    CLOUDY    34  25  69 W8        30.09R WCI  27
SILVER BAY     CLOUDY    30  23  74 W6        30.08R WCI  24
GRAND MARAIS     N/A     31  21  66 W6        30.09R WCI  25
G MARAIS ARPRT CLOUDY    25  18  74 W7        30.02R WCI  17
$$
MNZ029>031-032-039>041-046>048-054>057-064-240000-
   West Central Minnesota

CITY           SKY/WX    TMP DP  RH WIND       PRES   REMARKS
FERGUS FALLS   FAIR      10   3  72 NW6       30.24S WCI   1
WHEATON        CLEAR     18   9  68 W7        30.28S WCI   8
MORRIS         CLEAR     18  10  73 NW9       30.25R WCI   6
ALEXANDRIA     FAIR      18  13  80 W10       30.21R WCI   6
ELBOW LAKE     FAIR      14   8  76 NW6       30.24F WCI   5
WADENA         FAIR      21  10  63 W9        30.19R WCI  11
GLENWOOD       FAIR      18  12  79 W9        30.22R WCI   6
APPLETON       CLEAR     21  10  63 NW6       30.27R WCI  14
BENSON         CLEAR     19  12  73 N7        30.27R WCI  10
ORTONVILLE     CLEAR     21  10  63 N6        30.26R WCI  14
MADISON        CLEAR     25  18  74 W7        30.28R WCI  17
WILLMAR        FAIR      19  16  86 W8        30.27R WCI   9
$$
MNZ033>034-036-042>043-049>051-058-059-240000-
   Central Minnesota

CITY           SKY/WX    TMP DP  RH WIND       PRES   REMARKS
ST CLOUD       FAIR      27  20  75 W10       30.19S WCI  17
SAUK CENTRE    FAIR      19  14  82 W12       30.22R WCI   7
PAYNESVILLE    FAIR      25  19  80 NW8       30.23R WCI  16
AITKIN         CLOUDY    28  21  74 W5        30.14R WCI  23
PINE RIVER     FAIR      27  18  69 W6        30.18R WCI  20
BRAINERD       FAIR      30  19  63 W8        30.16R WCI  22
STAPLES        FAIR      21  12  68 W10       30.18R WCI  10
LONG PRAIRIE   FAIR      23  18  80 SW8       30.20R WCI  14
LITTLE FALLS   FAIR      30  14  51 W6        30.19R WCI  24
LITCHFIELD     FAIR      25  19  80 W3        30.24R
BUFFALO        FAIR      29  20  69 W9        30.23R WCI  21
MAPLE LAKE     FAIR      30  22  72 W7        30.22S WCI  23
HUTCHINSON     FAIR      23  19  85 W12       30.25R WCI  11
$$
MNZ037-044-045-052-053-240000-
   East Central Minnesota

CITY           SKY/WX    TMP DP  RH WIND       PRES   REMARKS
PRINCETON      FAIR      34  21  60 W8        30.19S WCI  27
CAMBRIDGE      FAIR      34  21  60 W7        30.19R WCI  28
RUSH CITY      FAIR      31  21  65 W7        30.18S WCI  25
MOOSE LAKE     MOCLDY    32  21  64 W6        30.13R WCI  26
HINCKLEY       FAIR      32  23  69 W6        30.16R WCI  26
CLOQUET        CLOUDY    30  21  69 W9        30.11R WCI  22
MCGREGOR       CLOUDY    32  23  69 W9        30.14R WCI  24
$$
MNZ071>073-080-081-089-090-097-098-240000-
   Southwest Minnesota

CITY           SKY/WX    TMP DP  RH WIND       PRES   REMARKS
MONTEVIDEO     CLOUDY    25  18  74 NW8       30.27R WCI  16
GRANITE FALLS  CLEAR     22  18  83 SW6       30.29R WCI  15
CANBY          PTSUNNY   26  19  76 SW8       30.28R WCI  18
MARSHALL       CLEAR     23  17  78 SW7       30.27R WCI  15
REDWOOD FALLS  CLOUDY    24  20  84 W9        30.26S WCI  14
OLIVIA         CLEAR     23  19  86 NW6       30.26R WCI  16
PIPESTONE      CLOUDY    18  16  93 W7        30.25R WCI   8
WORTHINGTON    PTSUNNY   24  19  81 W10       30.27R WCI  14
JACKSON        CLOUDY    27  21  80 W12       30.27R WCI  16
TRACY          CLEAR     25  20  83 W5        30.25S WCI  19
SLAYTON        SUNNY     24  19  84 W7        30.26R WCI  15
$$
MNZ065>067-074>077-082>085-091>093-240000-
   South Central Minnesota

CITY           SKY/WX    TMP DP  RH WIND       PRES   REMARKS
MANKATO        FAIR      25  19  78 W7        30.27R WCI  17
NEW ULM        CLEAR     23  18  80 W12       30.27R WCI  12
ST JAMES       CLOUDY    25  19  80 W6        30.29R WCI  18
FAIRMONT       CLEAR     25  19  78 W9        30.28R WCI  15
GLENCOE        FAIR      25  21  84 W9        30.24R WCI  16
FARIBAULT      FAIR      25  19  80 SW9       30.26R WCI  15
OWATONNA       FAIR      21  18  86 SW10      30.25R FOG     WCI  10
WASECA         FAIR      19  16  86 SW7       30.28R WCI  10
ALBERT LEA     FAIR      25  18  74 CALM      30.26R
$$
MNZ078>079-086>088-094>096-240000-
   Southeast Minnesota

CITY           SKY/WX    TMP DP  RH WIND       PRES   REMARKS
ROCHESTER      FAIR      21  19  92 W9        30.23R FOG     WCI  11
RED WING       FAIR      28  18  64 W10       30.24R WCI  19
STANTON        FAIR      26  19  77 SW9       30.24R WCI  16
DODGE CENTER   MOCLDY    19  18  93 W7        30.24R FOG     WCI  10
WINONA         CLOUDY    30  23  74 W7        30.25R WCI  23
AUSTIN         FAIR      25  19  80 W10       30.25R WCI  15
PRESTON        FAIR      24  20  86 W8        30.24R WCI  15
$$
ABBREVIATIONS USED IN REMARKS
   TC - TEMPERATURES IN CELSIUS
  WCI - WIND CHILL INDEX
   HX - HEAT INDEX
  VSB - VISIBILITY
$$




USA.gov is the U.S. government's official web portal to all federal, state and local government web resources and services.